Location: Grasslands National Park East Block
(49.0708°N, 106.5295°W)
Time: 14:09:34
(UTC-06:00)

Daily predictions for brighter satellites

Satellite Brightness Start Highest point End
(mag) Time Altitude Azimuth Time Altitude Azimuth Time Altitude Azimuth
Cosmos 2360 Rocket 2.2 18:07:51 10° SSW 18:13:28 77° ESE 18:19:06 10° NNE
Cosmos 1980 Rocket 4.0 18:10:04 10° W 18:14:35 24° NW 18:19:08 10° N
Cosmos 389 Rocket 2.5 18:11:18 10° N 18:14:56 66° ENE 18:18:28 10° SSE
Cosmos 1174 4.0 18:12:03 10° SW 18:14:56 46° NW 18:18:05 10° NNE
Cosmos 1408 Rocket 3.8 18:10:44 10° S 18:15:04 53° E 18:19:23 10° NNE
COSMOS 2441 4.5 18:21:07 10° SSE 18:25:52 56° ENE 18:30:37 10° N
Cosmos 2333 Rocket 3.4 18:23:17 10° SSE 18:27:35 23° ESE 18:31:54 10° NE
Cosmos 1763 Rocket 3.9 18:23:33 10° S 18:28:29 44° ESE 18:33:23 10° NE
ATLAS 5 CENTAUR R/B 3.8 18:27:52 10° NW 18:31:35 19° N 18:35:33 10° NE
CORIOLIS 4.1 18:26:45 10° SSE 18:32:05 85° ENE 18:37:30 10° NNW
Cosmos 1743 Rocket 3.9 18:32:56 10° SSE 18:37:12 45° E 18:41:28 10° NNE
Cosmos 1328 Rocket 3.5 18:33:54 10° N 18:38:22 70° E 18:42:47 10° SSE
Tsikada Rocket 4.1 18:34:01 10° S 18:40:23 79° E 18:46:50 10° NNE
Cosmos 2219 Rocket 2.8 18:35:39 10° S 18:40:43 36° ESE 18:45:49 10° NE
Cosmos 2322 Rocket 3.6 18:36:22 10° WSW 18:41:29 34° NW 18:46:38 10° NNE
Cosmos 2278 Rocket 2.4 18:36:23 10° NNW 18:41:58 52° NE 18:47:30 10° SE
BREEZE-M DEB (TANK) 3.7 18:41:19 10° S 18:42:35 12° SSE 18:43:40 10° ESE
Cosmos 1908 3.4 18:39:01 10° NNW 18:42:55 75° W 18:46:47 10° S
Cosmos 1515 Rocket 3.6 18:40:52 10° N 18:45:20 63° ENE 18:49:45 10° SSE
MONITOR-E 4.1 18:43:35 10° SSE 18:46:44 67° ENE 18:49:55 10° N
Cosmos 2151 3.9 18:44:52 10° SSE 18:48:25 27° E 18:51:58 10° NNE
SKYMED 2 4.1 18:44:54 10° NNE 18:48:58 37° E 18:52:59 10° SSE
Cosmos 540 Rocket 4.5 18:44:57 10° SSE 18:49:10 26° E 18:52:40 13° NE
Cosmos 332 Rocket 4.0 18:46:39 10° S 18:51:16 48° ESE 18:55:58 10° NNE
Cosmos 1844 3.8 18:47:20 10° NNW 18:53:07 86° WSW 18:58:55 10° SSE
ATLAS 3B R/B 4.1 18:47:24 10° WNW 18:53:39 28° NNW 18:59:38 10° NE
SL-14 R/B 4.2 18:50:30 10° SSE 18:53:53 28° E 18:57:04 11° NNE
Cosmos 1151 Rocket 3.1 18:50:30 10° N 18:54:42 53° ENE 18:58:53 10° SSE
Cosmos 1674 2.7 18:51:14 10° S 18:55:04 88° W 18:58:57 10° N
USA 215 3.3 18:50:21 10° SE 18:56:56 85° SSW 19:03:32 10° WNW
Thor Agena Rocket 3.6 18:52:02 10° NNE 18:57:21 85° ESE 19:02:34 10° SSW
Cosmos 1484 Rocket 2.8 18:55:23 10° SSE 18:59:18 88° E 19:03:20 10° NNW
SPOT 3 Rocket 4.4 18:56:11 10° S 19:01:13 55° W 19:06:19 10° NNW
Cosmos 1125 Rocket 3.4 18:57:02 10° NNW 19:02:17 76° ENE 19:07:28 10° SSE
Cosmos 1634 Rocket 3.9 18:56:28 10° N 19:02:42 80° E 19:08:52 10° SSE
Cosmos 1814 Rocket 4.4 18:58:31 10° SSW 19:03:51 69° WNW 19:09:14 10° NNE
MSX 4.3 18:58:16 10° S 19:03:55 64° WSW 19:09:39 10° NNW
Cosmos 1500 Rocket 3.5 18:59:51 10° S 19:04:06 60° E 19:08:25 10° NNE
BREEZE M DEB (TANK) 2.2 19:00:55 10° WNW 19:04:18 50° SSW 19:05:47 17° SE
CZ-4C R/B 4.0 19:00:51 10° NW 19:05:39 23° N 19:09:59 13° NE
Cosmos 1300 2.6 19:03:35 10° N 19:07:25 66° ENE 19:11:14 10° SSE
NOAA 12 4.2 19:02:51 10° SE 19:07:57 54° ENE 19:13:04 10° N
COSMOS 2428 2.7 19:02:13 10° SSW 19:07:57 88° WNW 19:13:43 10° NNE
Cosmos 1726 2.0 19:05:22 10° N 19:09:08 71° E 19:12:54 10° SSE
NOSS 3-2 (C) 4.4 19:04:30 10° WSW 19:10:31 45° NNW 19:16:42 12° NE
Cosmos 2237 Rocket 2.7 19:06:16 10° S 19:11:25 38° ESE 19:14:53 19° NE
ALOS 3.1 19:08:11 10° ESE 19:12:10 28° ENE 19:16:09 10° N
Cosmos 2369 Rocket 3.9 19:09:21 10° N 19:12:22 14° NNE 19:13:01 14° NE
Cosmos 44 4.2 19:08:30 10° S 19:13:07 32° ESE 19:15:09 24° ENE
Cosmos 2237 4.5 19:07:29 10° SW 19:13:10 70° WNW 19:18:54 10° NNE
SL-16 R/B 3.5 19:12:30 10° SE 19:16:19 19° E 19:16:19 19° E
Lacrosse 5 rocket 1.0 19:13:05 10° NW 19:16:51 83° NNE 19:19:24 21° ESE
IDEFIX/ARIANE 42P 4.4 19:12:59 10° SSW 19:17:41 33° W 19:22:26 10° NNW
Spot 2 Rocket 4.1 19:13:15 10° SE 19:17:42 33° ENE 19:22:11 10° N
Transit 2A Rocket 4.4 19:14:27 10° NNW 19:18:51 72° NE 19:23:08 10° SE
Cosmos 2297 3.8 19:15:27 10° NNW 19:21:02 51° NE 19:26:36 10° SE
CZ-4 R/B 4.1 19:18:23 10° SW 19:21:21 21° W 19:24:21 10° NW
Cosmos 371 Rocket 3.2 19:16:50 10° SSW 19:21:36 68° ESE 19:25:20 17° NNE
Cosmos 841 Rocket 3.6 19:16:59 10° SSW 19:22:16 82° WNW 19:27:35 10° NNE
Molniya-1 4.3 19:20:45 10° SW 19:23:52 84° SE 19:27:01 23° NE
FREGAT/IRIS 3.5 19:25:10 33° NNE 19:25:10 33° NNE 19:27:12 10° N
NOSS 0 Rocket 4.0 19:22:20 10° S 19:28:26 60° ESE 19:32:50 19° NE
Lacrosse 4 Rocket 2.9 19:28:44 10° N 19:31:05 20° NNE 19:31:05 20° NNE
Meteor 1-28 Rocket 3.0 19:29:52 20° NNE 19:32:23 73° ESE 19:36:06 10° S
SL-19 R/B 4.3 19:27:28 10° SE 19:33:13 59° ENE 19:38:44 10° N
Resurs 01 Rocket 2.0 19:31:55 28° ESE 19:33:37 40° ENE 19:37:47 10° N
Cosmos 2084 3.3 19:30:19 10° SSW 19:34:05 53° SE 19:34:44 46° E
COSMO-SKYMED 1 2.7 19:32:44 10° N 19:37:05 75° WNW 19:41:25 10° SSW
Meteor 1-11 4.2 19:32:51 10° S 19:38:29 68° E 19:44:13 10° NNE
Cosmos 1328 4.0 19:34:42 10° SSW 19:38:39 70° W 19:42:36 10° N
Aureole 2 Rocket 3.5 19:35:56 10° S 19:38:34 33° SE 19:38:34 33° SE
CENTAUR R/B 2.8 19:34:13 10° SW 19:40:28 69° NW 19:45:39 20° NE
Cosmos 1707 Rocket 3.6 19:36:22 10° N 19:40:38 53° ENE 19:44:52 10° SSE
Cosmos 44 Rocket 3.3 19:35:52 10° SSW 19:40:58 76° SE 19:43:11 34° NE
Lacrosse 5 2.8 19:37:14 10° W 19:41:59 38° NNW 19:43:59 27° NNE
SL-16 R/B 4.4 19:38:39 10° WNW 19:42:20 17° NW 19:46:03 10° N
Resurs 1-3 4.2 19:46:40 38° NE 19:46:40 38° NE 19:49:57 10° N
SJ-6B 3.0 19:46:44 10° S 19:50:48 79° WSW 19:54:57 10° NNW
FengYun 1-2 T 4.1 19:48:58 10° SSE 19:54:30 71° ENE 20:00:02 10° N
Cosmos 2279 Rocket 4.2 19:48:44 10° NNW 19:54:56 73° W 20:01:07 10° S
Cosmos 1900 4.2 19:50:14 10° NW 19:55:12 78° NE 19:56:54 42° SE
Cosmos 2360 Rocket 4.1 19:53:32 10° W 19:58:05 25° NW 20:02:40 10° N
Cosmos 1980 3.6 19:52:57 10° SSW 19:58:39 89° ESE 20:01:38 30° NNE
Cosmos 2058 3.0 19:55:02 10° SSW 19:59:08 75° W 20:01:14 28° N
Cosmos 1703 4.2 20:02:21 10° S 20:04:47 37° S 20:04:47 37° S
Cosmos 304 Rocket 4.0 20:02:43 10° S 20:06:42 52° SE 20:06:42 52° SE
FENGYUN 3A 3.5 20:03:01 10° SSE 20:08:22 84° ENE 20:13:47 10° NNW
Cosmos 2333 Rocket 2.5 20:05:44 10° SW 20:11:20 67° WNW 20:14:23 28° NNE
Orbus 7S? 4.1 20:10:59 10° NW 20:14:51 85° NNE 20:16:34 50° ESE
ATLAS 5 CENTAUR R/B 3.6 20:13:42 10° NNW 20:17:47 24° NNE 20:17:47 24° NNE
Nadezhda 4 Rocket 3.8 20:13:40 10° S 20:19:54 76° E 20:26:14 10° NNE
Cosmos 1340 Rocket 3.4 20:17:26 10° SSW 20:21:05 55° W 20:21:05 55° W
Cosmos 2219 Rocket 3.1 20:19:12 10° SW 20:24:35 44° NW 20:27:46 23° N
Cosmos 2278 Rocket 4.0 20:20:55 10° NW 20:25:48 30° WSW 20:30:39 10° SSW
Cosmos 540 Rocket 4.2 20:25:27 10° SW 20:30:29 50° WNW 20:32:33 32° N
Cosmos 1805 Rocket 4.2 20:29:53 10° SSW 20:34:15 55° WNW 20:34:22 55° WNW
Cosmos 1092 Rocket 3.9 20:30:58 10° S 20:45:20 - NNE 20:36:36 68° SE
Cosmos 1943 Rocket 4.1 20:33:16 10° N 20:34:46 16° N 20:34:46 16° N
ATLAS 3B R/B 4.0 20:40:50 10° NW 20:46:40 26° N 20:46:53 26° NNE
ALOS 3.5 20:45:06 10° SSW 20:49:28 39° W 20:53:53 10° NNW
Cosmos 44 4.2 20:49:10 10° WSW 20:53:37 48° WNW 20:53:37 48° WNW
Cosmos 2237 Rocket 3.2 20:50:07 10° WSW 20:55:26 42° NW 20:56:46 36° NNW
Lacrosse 5 rocket 3.8 20:53:01 10° W 20:55:10 18° WSW 20:55:10 18° WSW
CZ-4C R/B 3.8 20:50:30 10° NW 20:55:10 30° N 20:55:10 30° N
Cosmos 2369 Rocket 3.7 20:52:20 10° NNW 20:54:50 25° N 20:54:50 25° N
SL-16 R/B 2.9 20:54:13 10° SSW 20:58:16 48° SW 20:58:16 48° SW
Resurs 01 Rocket 3.7 21:09:28 24° WSW 21:10:13 25° W 21:13:57 10° NW
Lacrosse 4 Rocket 4.2 21:07:00 10° NW 21:07:28 13° NW 21:07:28 13° NW
Lacrosse 5 4.0 21:21:15 10° WNW 21:23:12 21° NW 21:23:12 21° NW
CENTAUR R/B 4.0 21:26:39 10° WNW 21:32:28 30° NNW 21:32:51 30° NNW
